This demonstration page uses our WeatherBlox Daily Observations layout. Learn more.

Left ArrowRight Arrow

34.02893, -84.19858

Hourly Observations for June 3, 2020

Temp ( °F °C ) Dew Point ( °F °C ) Humidity (%) Winds ( mph kmh ) Pressure ( in mb ) Visibility ( mi km ) Precip ( " mm )
12:53 am 00:53 Clear 68 20 64 17.8 87 87 Calm 30.07 1018 10 16 0.00 0.00
1:53 am 01:53 Clear 68 20 64 17.8 87 87 SSW 3 6 30.06 1018 10 16 0.00 0.00
2:53 am 02:53 Clear 69 20.6 65 18.3 87 87 SW 7 11 30.05 1018 10 16 0.00 0.00
3:53 am 03:53 Clear 68 20 65 18.3 90 90 SW 3 6 30.05 1018 10 16 0.00 0.00
4:53 am 04:53 Clear 69 20.6 65 18.3 87 87 W 3 6 30.04 1017 10 16 0.00 0.00
5:53 am 05:53 Clear 67 19.4 64 17.8 91 91 Calm 30.05 1018 10 16 0.00 0.00
6:53 am 06:53 Sunny 66 18.9 65 18.3 96 96 Calm 30.06 1018 8 13 0.00 0.00
7:53 am 07:53 Sunny 71 21.7 67 19.4 87 87 Calm 30.06 1018 10 16 0.00 0.00
8:53 am 08:53 Sunny 75 23.9 68 20 79 79 W 6 9 30.06 1018 10 16 0.00 0.00
9:53 am 09:53 Sunny 78 25.6 67 19.4 69 69 W 8 13 30.05 1018 10 16 0.00 0.00
10:53 am 10:53 Sunny 80 26.7 66 18.9 62 62 VRB 7 11 30.04 1017 10 16 0.00 0.00
11:53 am 11:53 Mostly Cloudy 82 27.8 68 20 63 63 NW 8 13 30.03 1017 10 16 0.00 0.00
12:53 pm 12:53 Partly Cloudy 85 29.4 68 20 57 57 WNW 5 7 29.99 1016 10 16 0.00 0.00
1:53 pm 13:53 Partly Cloudy 84 28.9 67 19.4 57 57 W 8 13 29.97 1015 10 16 0.00 0.00
2:53 pm 14:53 Mostly Sunny 83 28.3 66 18.9 57 57 WSW 6 9 29.94 1014 10 16 0.00 0.00
3:53 pm 15:53 Sunny 85 29.4 67 19.4 55 55 VRB 5 7 29.92 1013 10 16 0.00 0.00
4:53 pm 16:53 Sunny 86 30 67 19.4 53 53 SW 7 11 29.91 1013 10 16 0.00 0.00
5:53 pm 17:53 Mostly Cloudy 85 29.4 66 18.9 53 53 SSE 5 7 29.91 1013 10 16 0.00 0.00
6:53 pm 18:53 Mostly Sunny 83 28.3 66 18.9 57 57 WSW 6 9 29.90 1013 10 16 0.00 0.00
7:53 pm 19:53 Partly Cloudy 83 28.3 66 18.9 57 57 WSW 5 7 29.91 1013 10 16 0.00 0.00
8:53 pm 20:53 Clear 78 25.6 67 19.4 69 69 SSE 5 7 29.90 1013 10 16 0.00 0.00
9:53 pm 21:53 Clear 77 25 66 18.9 69 69 S 5 7 29.91 1013 10 16 0.00 0.00
10:53 pm 22:53 Clear 75 23.9 67 19.4 76 76 Calm 29.92 1013 10 16 0.00 0.00
11:53 pm 23:53 Clear 73 22.8 66 18.9 79 79 Calm 29.93 1013 10 16 0.00 0.00

Powered by AerisWeather